OPS 4682 DEB, 1316

Orbit data source: Space-Track

OPS 4682 DEB, 1316 is space debris in LEO originally from a launch on Sat, 03 Apr 1965 UTC launched from the Air Force Western Test Range (AFWTR). Debris objects in space refer to the collection of defunct objects orbiting the Earth. Examples of debris include non-operational satellites, rocket bodies, and fragments generated from explosions, collisions, or faulty payload assembly.

Loading next visibility...
Identifier
1316, 1965-027C
Orbit
LEO
Country
Flag of USUS
Related business
Manufacturer
Unknown
Mission
Spacecraft
Bus & Motor
Unknown
Mass
7 kg wet, 7 kg dry
Launch date (UTC)
1965-04-03 (61 years ago)
Launch vehicle
Unknown
Launch site
Air Force Western Test Range (AFWTR)
Object type
Payload
Rocket body
Debris
Shape & HBR
Unknown
Radar Cross Section
Medium (>0.1 m² and <1 m²)

Expand to show TLE details & history
Last TLE update: 12 hours ago

TLE from 12 hours ago
0 OPS 4682 DEB
1  1316U 65027C   26131.11214977  .00000449  00000-0  10545-2 0  9990
2  1316  90.2625  26.5798 0033000 290.6290  69.1308 13.22469327914109
Epoch: 2026-05-11T02:41Z
TLE epoch observation values (Epoch: 2026-05-11T02:41:29.740Z)
Latitude
0.00009°
Longitude
117.30033°
Altitude
1,169.406 km
Speed
7.273 km/s
True Right ascension
01h 46m 19s
True Declination
0° 00' 00"
Sunlit
Object was in daylight at epoch
Visualization orbit readout
Latitude
Unknown
Longitude
Unknown
Altitude
Unknown
Speed
Unknown
Apparent Right ascension
Unknown
Apparent Declination
Unknown
Sunlit
N/A
Visualization observer readout
Local Sidereal Time
23:11:12
Azimuth
Unknown
Elevation
Unknown
Doppler factor
Unknown
Orbital elements
Apogee altitude
1,197.31 km
Perigee altitude
1,147.476 km
Semi-major axis
7,550.53 km
Eccentricity
0.0033
Inclination
90.2625°
RAAN
26.5798°
Arg. of periapsis
290.629°
True anomaly
69.48466°
Mean anomaly
69.1308°
Eccentric anomaly
69.30768°
Mean motion
3.30809 °/min
Orbital period
108.82 mins
BSTAR
0.0010545
Loading maneuver chart data...
Computing Atmospheric mass density...
Loading historical data...
Loading historical data...
Loading historical data...
Loading historical data...
Loading historical data...
Loading historical data...
Loading historical data...

Documentation

Showing up to 5 results
|